Weather History for KBLU - January, 2014

Change the Weather History Date:

Friday, January 17, 2014

  Actual Average Record
Temperature  
Mean Temperature 57 °F -  
Max Temperature 61 °F 45 °F 65 °F (1976)
Min Temperature 53 °F 33 °F 14 °F (1987)
Degree Days  
Heating Degree Days 8    
Growing Degree Days 7 (Base 50)    
Moisture  
Dew Point 12 °F    
Average Humidity 18    
Maximum Humidity 25    
Minimum Humidity 13    
Precipitation  
Precipitation 0.00 in - - ()
Sea Level Pressure  
Sea Level Pressure 30.14 in    
Wind  
Wind Speed 3 mph (SE)    
Max Wind Speed 6 mph    
Max Gust Speed -    
Visibility 10 miles    
Events      
Averages and records for this station are not official NWS values.
T = Trace of Precipitation, MM = Missing Value Source: NWS Daily Summary

Daily Weather History Graph

Daily Weather History Graph

Search for Another Location

Airport or City:

Trip Planner

Search our weather history database for the weather conditions in past years. The results will help you decide how hot, cold, wet, or windy it might be!

Date:

Astronomy

Jan. 17, 2014 Rise Set
Actual Time 7:20 AM PST 5:06 PM PST
Civil Twilight 6:50 AM PST 5:35 PM PST
Nautical Twilight 6:17 AM PST 6:08 PM PST
Astronomical Twilight 5:45 AM PST 6:40 PM PST
Moon 6:56 PM PST (1/17) 7:51 AM PST (1/17)
Length of Visible Light 10h 44m
Length of Day
9h 46m
Full, 98% of the Moon is Illuminated
Jan 17
Full
Jan 23
Last Quarter
Jan 30
New
Feb 6
First Quarter
Feb 14
Full

Hourly Weather History & Observations

Time (PST) Temp. Dew Point Humidity Pressure Visibility Wind Dir Wind Speed Gust Speed Precip Events Conditions
12:52 AM 55.9 °F 7.0 °F 14% 30.12 in 10.0 mi ENE 3.5 mph - N/A   Clear
1:52 AM 55.9 °F 7.0 °F 14% 30.12 in 10.0 mi Calm Calm - N/A   Clear
2:52 AM 54.0 °F 7.0 °F 15% 30.13 in 10.0 mi Calm Calm - N/A   Clear
3:52 AM 54.0 °F 7.0 °F 15% 30.13 in 10.0 mi East 3.5 mph - N/A   Clear
4:52 AM 54.0 °F 7.0 °F 15% 30.14 in 10.0 mi East 3.5 mph - N/A   Clear
5:52 AM 55.0 °F 3.9 °F 13% 30.16 in 10.0 mi SE 3.5 mph - N/A   Clear
6:52 AM 54.0 °F 5.0 °F 14% 30.18 in 10.0 mi Calm Calm - N/A   Clear
7:52 AM 54.0 °F 6.1 °F 15% 30.18 in 10.0 mi East 3.5 mph - N/A   Clear
8:52 AM 55.9 °F 9.0 °F 15% 30.19 in 10.0 mi South 3.5 mph - N/A   Clear
9:52 AM 57.9 °F 9.0 °F 14% 30.19 in 10.0 mi South 4.6 mph - N/A   Clear
10:52 AM 57.9 °F 12.0 °F 16% 30.18 in 10.0 mi South 5.8 mph - N/A   Clear
11:52 AM 60.1 °F 12.9 °F 16% 30.15 in 10.0 mi South 5.8 mph - N/A   Clear
12:52 PM 60.1 °F 12.9 °F 16% 30.12 in 10.0 mi SSE 5.8 mph - N/A   Clear
1:52 PM 61.0 °F 17.1 °F 18% 30.10 in 10.0 mi West 5.8 mph - N/A   Clear
2:52 PM 60.1 °F 16.0 °F 18% 30.12 in 10.0 mi Variable 5.8 mph - N/A   Clear
3:52 PM 59.0 °F 14.0 °F 17% 30.12 in 10.0 mi WSW 3.5 mph - N/A   Clear
4:52 PM 57.0 °F 16.0 °F 20% 30.14 in 10.0 mi Calm Calm - N/A   Clear
5:52 PM 54.0 °F 19.0 °F 25% 30.15 in 10.0 mi Calm Calm - N/A   Clear
6:52 PM 54.0 °F 17.1 °F 23% 30.15 in 10.0 mi ENE 4.6 mph - N/A   Clear
7:52 PM 53.1 °F 17.1 °F 24% 30.14 in 10.0 mi NE 4.6 mph - N/A   Clear
8:52 PM 54.0 °F 16.0 °F 22% 30.14 in 10.0 mi Calm Calm - N/A   Clear
9:52 PM 55.0 °F 14.0 °F 20% 30.12 in 10.0 mi Calm Calm - N/A   Clear
10:52 PM 54.0 °F 15.1 °F 22% 30.13 in 10.0 mi Calm Calm - N/A   Clear
11:52 PM 54.0 °F 12.0 °F 19% 30.12 in 10.0 mi Calm Calm - N/A   Clear